FW8074 Weather Reports


Display with metric or nautical units.
time (UTC)temp
F
wind
direction
speed
MPH
gust
MPH
rain 1hr
in
rain 24hr
in
rain mn
in
humidity
%
barometer
mb
20260901231606 88 0 0.0 0.0 0.00 0.00 0.00 75 1013.7
20260901230115 88 0 0.0 0.0 0.00 0.00 0.00 74 1013.6
20260901224601 89 0 0.0 0.0 0.00 0.00 0.00 70 1013.7
20260901223117 90 0 0.0 0.0 0.00 0.00 0.00 70 1013.6
20260901221617 91 0 0.0 0.0 0.00 0.00 0.00 69 1013.7
20260901220134 91 0 0.0 0.0 0.00 0.00 0.00 65 1013.7
20260901214601 92 0 0.0 0.0 0.00 0.00 0.00 64 1013.7
20260901213122 92 0 0.0 0.0 0.00 0.00 0.00 63 1013.6
20260901211604 93 0 0.0 1.0 0.00 0.00 0.00 61 1013.7
20260901210106 93 98 0.0 3.0 0.00 0.00 0.00 59 1013.5
20260901204614 93 0 0.0 4.0 0.00 0.00 0.00 58 1013.5
20260901203115 93 0 0.0 3.0 0.00 0.00 0.00 59 1013.7
20260901201603 93 0 0.0 6.0 0.00 0.00 0.00 60 1013.8
20260901200106 93 0 0.0 5.0 0.00 0.00 0.00 59 1013.9
20260901194602 93 67 0.0 4.0 0.00 0.00 0.00 59 1014.1
20260901193122 93 0 0.0 4.0 0.00 0.00 0.00 57 1014.3
20260901191604 94 96 1.0 6.0 0.00 0.00 0.00 57 1014.3
20260901190105 94 0 0.0 0.0 0.00 0.00 0.00 57 1014.4
20260901184605 93 0 0.0 4.0 0.00 0.00 0.00 60 1014.5
20260901183105 93 0 0.0 5.0 0.00 0.00 0.00 59 1014.7
20260901181602 94 3 0.0 5.0 0.00 0.00 0.00 60 1015.0
20260901180106 94 0 0.0 4.0 0.00 0.00 0.00 59 1015.0
20260901174604 93 0 1.0 5.0 0.00 0.00 0.00 59 1015.2
20260901173105 93 111 0.0 4.0 0.00 0.00 0.00 62 1015.1
20260901171604 93 0 0.0 4.0 0.00 0.00 0.00 56 1015.2
20260901170109 91 0 0.0 5.0 0.00 0.00 0.00 63 1015.3
20260901164630 92 0 0.0 0.0 0.00 0.00 0.00 62 1015.5
20260901163104 93 0 0.0 0.0 0.00 0.00 0.00 62 1015.7
20260901161601 92 0 0.0 0.0 0.00 0.00 0.00 62 1015.9
20260901160107 92 0 0.0 0.0 0.00 0.00 0.00 64 1015.9
20260901154602 93 0 0.0 0.0 0.00 0.00 0.00 64 1016.2
20260901153106 92 0 0.0 0.0 0.00 0.00 0.00 67 1016.1
20260901151615 90 0 0.0 0.0 0.00 0.00 0.00 70 1016.1
20260901150107 89 0 0.0 0.0 0.00 0.00 0.00 70 1016.2
20260901144604 90 0 0.0 0.0 0.00 0.00 0.00 72 1016.2
20260901143106 89 0 0.0 0.0 0.00 0.00 0.00 75 1016.2
20260901141607 87 0 0.0 0.0 0.00 0.00 0.00 77 1016.3
20260901140107 85 0 0.0 0.0 0.00 0.00 0.00 79 1016.2
20260901134618 85 0 0.0 0.0 0.00 0.00 0.00 82 1016.2
20260901133105 82 0 0.0 0.0 0.00 0.00 0.00 88 1016.1
20260901131602 81 0 0.0 1.0 0.00 0.00 0.00 91 1016.1
20260901124602 77 0 0.0 2.0 0.00 0.00 0.00 100 1016.1
20260901123107 75 0 0.0 1.0 0.00 0.00 0.00 100 1016.2
20260901121604 74 0 0.0 0.0 0.00 0.00 0.00 100 1016.1
20260901120106 74 0 0.0 1.0 0.00 0.00 0.00 100 1015.9
20260901114607 73 0 0.0 2.0 0.00 0.00 0.00 99 1015.7
20260901113100 73 0 0.0 2.0 0.00 0.00 0.00 99 1015.6
20260901111605 73 0 0.0 0.0 0.00 0.00 0.00 99 1015.5
20260901110105 73 0 0.0 0.0 0.00 0.00 0.00 99 1015.3
20260901104603 73 0 0.0 0.0 0.00 0.00 0.00 99 1015.2
20260901103113 73 0 0.0 0.0 0.00 0.00 0.00 99 1015.2
20260901101608 73 0 0.0 0.0 0.00 0.00 0.00 99 1015.3
20260901100107 73 0 0.0 0.0 0.00 0.00 0.00 99 1015.3
20260901094609 74 0 0.0 0.0 0.00 0.00 0.00 99 1015.2
20260901093102 74 0 0.0 0.0 0.00 0.00 0.00 99 1015.0
20260901091605 74 0 0.0 0.0 0.00 0.00 0.00 99 1015.0
20260901090107 74 0 0.0 0.0 0.00 0.00 0.00 99 1015.0
20260901084601 74 0 0.0 0.0 0.00 0.00 0.00 99 1015.1
20260901083100 74 0 0.0 0.0 0.00 0.00 0.00 99 1015.2
20260901081606 74 0 0.0 0.0 0.00 0.00 0.00 98 1015.2
20260901080122 74 0 0.0 0.0 0.00 0.00 0.00 98 1015.2
20260901074602 74 0 0.0 0.0 0.00 0.00 0.00 98 1015.4
20260901073105 75 0 0.0 0.0 0.00 0.00 0.00 98 1015.5
20260901071609 75 0 0.0 0.0 0.00 0.00 0.00 98 1015.5
20260901070110 75 0 0.0 0.0 0.00 0.00 0.00 98 1015.4
20260901064603 75 0 0.0 0.0 0.00 0.00 0.00 98 1015.6
20260901063102 75 0 0.0 0.0 0.00 0.00 0.00 98 1015.7
20260901061604 75 0 0.0 0.0 0.00 0.00 0.00 97 1015.7
20260901060110 75 0 0.0 0.0 0.00 0.00 0.00 97 1015.8
20260901054602 75 0 0.0 0.0 0.00 0.00 0.00 97 1015.8
20260901053122 75 0 0.0 0.0 0.00 0.00 0.00 96 1015.9
20260901051611 75 0 0.0 0.0 0.00 0.00 0.00 97 1016.1
20260901050106 75 0 0.0 0.0 0.00 0.00 0.00 96 1015.9
20260901044610 75 0 0.0 0.0 0.00 0.00 0.00 96 1015.9
20260901043100 75 0 0.0 0.0 0.00 0.00 0.00 95 1016.1
20260901041605 75 0 0.0 0.0 0.00 0.00 0.00 95 1015.9
20260901040115 76 0 0.0 0.0 0.00 0.00 0.00 94 1016.1
20260901034610 76 0 0.0 0.0 0.00 0.00 0.00 94 1016.0
20260901033107 76 0 0.0 0.0 0.00 0.00 0.00 94 1016.1
20260901031559 76 0 0.0 0.0 0.00 0.00 0.00 94 1016.0
20260901030105 76 0 0.0 0.0 0.00 0.00 0.00 94 1016.2
20260901024601 76 0 0.0 0.0 0.00 0.00 0.00 94 1016.0
20260901023109 77 0 0.0 0.0 0.00 0.00 0.00 94 1015.8
20260901021604 77 0 0.0 0.0 0.00 0.00 0.00 95 1015.8
20260901020104 78 0 0.0 0.0 0.00 0.00 0.00 94 1015.7
20260901014602 78 0 0.0 0.0 0.00 0.00 0.00 93 1015.3
20260901013101 78 0 0.0 0.0 0.00 0.00 0.00 93 1015.2
20260901011609 79 0 0.0 0.0 0.00 0.00 0.00 91 1015.0
20260901010109 79 0 0.0 0.0 0.00 0.00 0.00 90 1014.9
20260901004610 80 0 0.0 0.0 0.00 0.00 0.00 90 1014.7
20260901003101 80 0 0.0 0.0 0.00 0.00 0.00 87 1014.6
20260901001604 81 0 0.0 0.0 0.00 0.00 0.00 85 1014.6
20260901000103 82 0 0.0 0.0 0.00 0.00 0.00 82 1014.6
20260831234601 83 0 0.0 0.0 0.00 0.00 0.00 80 1014.6
20260831233105 84 0 0.0 0.0 0.00 0.00 0.00 79 1014.7